TimeCDT,TemperatureF,Dew PointF,Humidity,Sea Level PressureIn,VisibilityMPH,Wind Direction,Wind SpeedMPH,Gust SpeedMPH,PrecipitationIn,Events,Conditions,WindDirDegrees,DateUTC
12:53 AM,84.0,64.9,53,29.99,10.0,South,6.9,-,N/A,,Clear,170,2013-09-18 05:53:00
1:53 AM,82.0,64.9,56,29.99,10.0,South,4.6,-,N/A,,Clear,170,2013-09-18 06:53:00
2:53 AM,80.1,64.9,60,29.99,10.0,South,4.6,-,N/A,,Clear,180,2013-09-18 07:53:00
3:53 AM,79.0,66.0,64,29.99,10.0,SSE,4.6,-,N/A,,Mostly Cloudy,160,2013-09-18 08:53:00
4:53 AM,78.1,66.0,66,29.97,10.0,SSE,3.5,-,N/A,,Clear,150,2013-09-18 09:53:00
5:53 AM,78.1,66.0,66,29.97,10.0,SSE,5.8,-,N/A,,Clear,160,2013-09-18 10:53:00
6:53 AM,75.9,66.9,74,29.98,10.0,South,5.8,-,N/A,,Clear,170,2013-09-18 11:53:00
7:53 AM,77.0,66.9,71,30.01,10.0,Calm,Calm,-,N/A,,Clear,0,2013-09-18 12:53:00
8:53 AM,81.0,69.1,67,30.01,10.0,South,3.5,-,N/A,,Clear,170,2013-09-18 13:53:00
9:53 AM,86.0,70.0,59,30.02,10.0,South,5.8,-,N/A,,Clear,180,2013-09-18 14:53:00
10:53 AM,89.1,68.0,50,30.02,10.0,South,9.2,16.1,N/A,,Clear,170,2013-09-18 15:53:00
11:53 AM,91.9,66.9,44,30.01,10.0,SSE,11.5,18.4,N/A,,Mostly Cloudy,160,2013-09-18 16:53:00
12:53 PM,93.0,64.9,39,29.99,10.0,South,11.5,-,N/A,,Partly Cloudy,180,2013-09-18 17:53:00
1:53 PM,95.0,61.0,32,29.96,10.0,ESE,12.7,20.7,N/A,,Partly Cloudy,120,2013-09-18 18:53:00
2:53 PM,98.1,61.0,29,29.93,10.0,Variable,6.9,-,N/A,,Mostly Cloudy,0,2013-09-18 19:53:00
3:53 PM,98.1,57.9,26,29.90,10.0,SSE,10.4,-,N/A,,Clear,160,2013-09-18 20:53:00
4:53 PM,96.1,61.0,31,29.89,10.0,SE,12.7,18.4,N/A,,Partly Cloudy,140,2013-09-18 21:53:00
5:53 PM,95.0,61.0,32,29.88,10.0,SE,11.5,-,N/A,,Clear,140,2013-09-18 22:53:00
6:53 PM,93.0,61.0,34,29.88,10.0,SSE,10.4,-,N/A,,Clear,150,2013-09-18 23:53:00
7:53 PM,88.0,61.0,40,29.89,10.0,ESE,5.8,-,N/A,,Clear,120,2013-09-19 00:53:00
8:53 PM,86.0,63.0,46,29.91,10.0,ESE,5.8,-,N/A,,Clear,120,2013-09-19 01:53:00
9:53 PM,87.1,64.0,46,29.92,10.0,ESE,8.1,-,N/A,,Partly Cloudy,120,2013-09-19 02:53:00
10:53 PM,86.0,66.9,53,29.94,10.0,SSE,15.0,-,N/A,,Clear,160,2013-09-19 03:53:00
11:53 PM,84.0,68.0,58,29.94,10.0,SSE,10.4,-,N/A,,Clear,160,2013-09-19 04:53:00